User: anonymous   Login
Location: Joplin, MO
(37.0842°N, 94.5133°W)
Time: 13:33:32
(UTC+02:00)
Language:

Courier 1B - Orbit

View from above orbital plane
View from above orbital plane
View from above satellite
View from above satellite

Ground track
Ground track

The orbit data is extracted from the following two-line orbital elements,

1    58U 60013A   23085.11791937  .00000124  00000-0  56892-4 0  9990
2    58  28.3292   2.1296 0164990 165.0387 195.5113 13.46348806 75583
Epoch (UTC): 26 March 2023 02:49:48
Eccentricity: 0.0164990
inclination: 28.3292°
perigee height: 962 km
apogee height: 1209 km
right ascension of ascending node: 2.1296°
argument of perigee: 165.0387°
revolutions per day: 13.46348806
mean anomaly at epoch: 195.5113°
orbit number at epoch: 7558

The dashed part of the orbit path shows where the satellite is in the earth's shadow,  

DLR